Simultaneous Nadir Overpasses (SNOs) Predictions

Prediction of SNOs between LANDSAT-8 and METOP-B Satellite Orbit:

Table of predicted SNOs for the next 14.0 days since TLE Epoch: 2/1/2025
Index Date (LANDSAT-8) Time (LANDSAT-8) Lat,Lon (LANDSAT-8) SZA (LANDSAT-8 ) Date (METOP-B) Time (METOP-B) Lat,Lon (METOP-B) SZA (METOP-B ) Distance(km) Time Diff (sec)
1 02/01/2025 05:40:01 81.42, 140.00 100.50 02/01/2025 05:38:48 81.43, 139.87 100.46 2.35 73
2 02/01/2025 06:29:27 -81.44, -52.06 79.48 02/01/2025 06:29:27 -81.44, -51.92 79.46 2.45 0
3 02/01/2025 07:18:47 81.55, 118.09 100.85 02/01/2025 07:20:01 81.45, 118.08 100.81 10.98 74
4 02/04/2025 01:14:15 81.43,-153.38 99.70 02/04/2025 01:13:20 81.43,-153.20 99.69 2.91 55
5 02/04/2025 02:03:42 -81.43, 14.19 80.33 02/04/2025 02:04:01 -81.44, 14.24 80.31 1.10 19
6 02/06/2025 20:48:29 81.44, -86.73 98.86 02/06/2025 20:47:54 81.44, -86.80 98.84 1.47 35
7 02/06/2025 21:37:56 -81.44, 80.86 81.16 02/06/2025 21:38:34 -81.44, 81.06 81.13 3.24 38
8 02/09/2025 16:22:43 81.44, -20.43 97.95 02/09/2025 16:22:28 81.43, -20.52 97.93 1.56 15
9 02/09/2025 17:12:10 -81.43, 147.19 82.07 02/09/2025 17:13:08 -81.44, 147.36 82.03 2.88 58
10 02/12/2025 11:07:29 -81.43,-121.74 82.98 02/12/2025 11:06:21 -81.43,-121.87 83.02 2.18 68



Historial Predications of SNOs between LANDSAT-8 and METOP-B
